Time,TemperatureF,DewpointF,PressureIn,WindDirection,WindDirectionDegrees,WindSpeedMPH,WindSpeedGustMPH,Humidity,HourlyPrecipIn,Conditions,Clouds,dailyrainin,SoftwareType,DateUTC
2013-08-08 00:04:00,73.1,-33.3,29.89,West,262,0.0,5.0,1,0.00,,,0.00,Wunderground v.1.15,2013-08-08 05:04:00,
2013-08-08 00:09:00,73.3,-33.2,29.89,West,262,0.0,5.0,1,0.00,,,0.00,Wunderground v.1.15,2013-08-08 05:09:00,
2013-08-08 00:19:00,73.2,-33.3,29.89,West,262,0.0,5.0,1,0.00,,,0.00,Wunderground v.1.15,2013-08-08 05:19:00,
2013-08-08 00:24:00,73.3,-33.2,29.88,West,262,0.0,5.0,1,0.00,,,0.00,Wunderground v.1.15,2013-08-08 05:24:00,
2013-08-08 00:29:00,73.2,-33.3,29.88,West,262,0.0,5.0,1,0.00,,,0.00,Wunderground v.1.15,2013-08-08 05:29:00,
2013-08-08 00:34:00,73.1,-33.3,29.88,West,262,0.0,5.0,1,0.00,,,0.00,Wunderground v.1.15,2013-08-08 05:34:00,
2013-08-08 00:40:00,73.3,-33.2,29.88,West,262,0.0,5.0,1,0.00,,,0.00,Wunderground v.1.15,2013-08-08 05:40:00,
2013-08-08 00:49:00,73.5,-33.1,29.88,West,262,0.0,5.0,1,0.00,,,0.00,Wunderground v.1.15,2013-08-08 05:49:00,
2013-08-08 00:59:00,73.0,-33.4,29.87,West,262,0.0,5.0,1,0.00,,,0.00,Wunderground v.1.15,2013-08-08 05:59:00,
2013-08-08 01:09:00,72.4,-33.8,29.87,West,262,0.0,5.0,1,0.00,,,0.00,Wunderground v.1.15,2013-08-08 06:09:00,
2013-08-08 01:19:00,72.3,-33.8,29.87,West,262,0.0,5.0,1,0.00,,,0.00,Wunderground v.1.15,2013-08-08 06:19:00,
2013-08-08 01:24:00,72.7,-33.6,29.88,West,262,0.0,5.0,1,0.00,,,0.00,Wunderground v.1.15,2013-08-08 06:24:00,
2013-08-08 01:34:00,72.3,-33.8,29.88,West,262,0.0,5.0,1,0.00,,,0.00,Wunderground v.1.15,2013-08-08 06:34:00,
2013-08-08 01:44:00,72.6,-33.6,29.88,West,261,0.0,5.0,1,0.00,,,0.00,Wunderground v.1.15,2013-08-08 06:44:00,
2013-08-08 01:55:00,72.6,-33.6,29.88,West,261,0.0,5.0,1,0.00,,,0.00,Wunderground v.1.15,2013-08-08 06:55:00,
2013-08-08 02:04:00,72.4,-33.8,29.87,West,262,0.0,5.0,1,0.00,,,0.00,Wunderground v.1.15,2013-08-08 07:04:00,
2013-08-08 02:14:00,72.7,-33.6,29.87,West,261,0.0,5.0,1,0.00,,,0.00,Wunderground v.1.15,2013-08-08 07:14:00,
2013-08-08 02:24:00,72.8,-33.5,29.86,West,262,0.0,5.0,1,0.00,,,0.00,Wunderground v.1.15,2013-08-08 07:24:00,
2013-08-08 02:34:00,72.6,-33.6,29.86,West,262,0.0,5.0,1,0.00,,,0.00,Wunderground v.1.15,2013-08-08 07:34:00,
2013-08-08 02:40:00,72.5,-33.7,29.86,West,262,0.0,5.0,1,0.00,,,0.00,Wunderground v.1.15,2013-08-08 07:40:00,
2013-08-08 02:49:00,74.1,-32.7,29.86,WSW,247,0.0,5.0,1,0.00,,,0.00,Wunderground v.1.15,2013-08-08 07:49:00,
2013-08-08 02:59:00,74.6,-32.4,29.86,West,269,0.0,5.0,1,0.00,,,0.00,Wunderground v.1.15,2013-08-08 07:59:00,
2013-08-08 03:09:00,74.5,-32.5,29.86,NW,315,0.0,5.0,1,0.00,,,0.00,Wunderground v.1.15,2013-08-08 08:09:00,
2013-08-08 03:19:00,74.1,-32.7,29.87,North,354,1.0,1.0,1,0.00,,,0.00,Wunderground v.1.15,2013-08-08 08:19:00,
2013-08-08 03:29:00,73.6,-33.0,29.87,NW,314,0.0,5.0,1,0.00,,,0.00,Wunderground v.1.15,2013-08-08 08:29:00,
2013-08-08 03:39:00,73.2,-33.3,29.87,NNE,13,0.0,5.0,1,0.00,,,0.00,Wunderground v.1.15,2013-08-08 08:39:00,
2013-08-08 03:49:00,73.0,-33.4,29.87,NW,311,0.0,5.0,1,0.00,,,0.00,Wunderground v.1.15,2013-08-08 08:49:00,
2013-08-08 03:54:00,72.9,-33.5,29.87,West,279,0.0,5.0,1,0.00,,,0.00,Wunderground v.1.15,2013-08-08 08:54:00,
2013-08-08 04:00:00,72.9,-33.5,29.87,NNW,343,0.0,5.0,1,0.00,,,0.00,Wunderground v.1.15,2013-08-08 09:00:00,
2013-08-08 04:09:00,72.8,-33.5,29.87,North,349,0.0,5.0,1,0.00,,,0.00,Wunderground v.1.15,2013-08-08 09:09:00,
2013-08-08 04:19:00,72.6,-33.6,29.86,NW,314,0.0,5.0,1,0.00,,,0.00,Wunderground v.1.15,2013-08-08 09:19:00,
2013-08-08 04:24:00,72.5,-33.7,29.85,NNW,328,1.0,5.0,1,0.00,,,0.00,Wunderground v.1.15,2013-08-08 09:24:00,
2013-08-08 04:34:00,72.3,-33.8,29.85,North,359,1.0,5.0,1,0.00,,,0.00,Wunderground v.1.15,2013-08-08 09:34:00,
2013-08-08 04:39:00,72.2,-33.9,29.84,NNW,343,1.0,1.0,1,0.00,,,0.00,Wunderground v.1.15,2013-08-08 09:39:00,
2013-08-08 04:49:00,72.1,-33.9,29.85,NNW,333,1.0,1.0,1,0.00,,,0.00,Wunderground v.1.15,2013-08-08 09:49:00,
2013-08-08 04:59:00,72.0,-34.0,29.85,NW,305,1.0,1.0,1,0.00,,,0.00,Wunderground v.1.15,2013-08-08 09:59:00,
2013-08-08 05:09:00,71.8,-34.1,29.86,West,274,0.0,5.0,1,0.00,,,0.00,Wunderground v.1.15,2013-08-08 10:09:00,
2013-08-08 05:19:00,71.8,-34.1,29.86,NW,309,0.0,5.0,1,0.00,,,0.00,Wunderground v.1.15,2013-08-08 10:19:00,
2013-08-08 05:25:00,71.8,-34.1,29.86,NNW,337,0.0,5.0,1,0.00,,,0.00,Wunderground v.1.15,2013-08-08 10:25:00,
2013-08-08 05:34:00,71.6,-34.2,29.86,NW,321,0.0,5.0,1,0.00,,,0.00,Wunderground v.1.15,2013-08-08 10:34:00,
2013-08-08 05:39:00,71.6,-34.2,29.86,NNW,340,1.0,1.0,1,0.00,,,0.00,Wunderground v.1.15,2013-08-08 10:39:00,
2013-08-08 05:49:00,71.4,-34.4,29.87,NNW,330,0.0,5.0,1,0.00,,,0.00,Wunderground v.1.15,2013-08-08 10:49:00,
2013-08-08 05:59:00,71.3,-34.4,29.88,West,264,1.0,5.0,1,0.00,,,0.00,Wunderground v.1.15,2013-08-08 10:59:00,
2013-08-08 06:10:00,71.3,-34.4,29.88,North,11,1.0,1.0,1,0.00,,,0.00,Wunderground v.1.15,2013-08-08 11:10:00,
2013-08-08 06:19:00,71.2,-34.5,29.89,SW,217,1.0,1.0,1,0.00,,,0.00,Wunderground v.1.15,2013-08-08 11:19:00,
2013-08-08 06:29:00,71.1,-34.5,29.89,WNW,291,1.0,1.0,1,0.00,,,0.00,Wunderground v.1.15,2013-08-08 11:29:00,
2013-08-08 06:39:00,71.1,-34.5,29.89,WNW,291,1.0,1.0,1,0.00,,,0.00,Wunderground v.1.15,2013-08-08 11:39:00,
2013-08-08 06:44:00,71.1,-34.5,29.89,NW,322,1.0,5.0,1,0.00,,,0.00,Wunderground v.1.15,2013-08-08 11:44:00,
2013-08-08 06:50:00,71.1,-34.5,29.89,WSW,256,1.0,1.0,1,0.00,,,0.00,Wunderground v.1.15,2013-08-08 11:50:00,
2013-08-08 06:59:00,71.1,-34.5,29.89,NNW,335,0.0,5.0,1,0.00,,,0.00,Wunderground v.1.15,2013-08-08 11:59:00,
2013-08-08 07:09:00,71.1,-34.5,29.89,West,263,0.0,5.0,1,0.00,,,0.00,Wunderground v.1.15,2013-08-08 12:09:00,
2013-08-08 07:19:00,71.1,-34.5,29.89,WSW,246,0.0,5.0,1,0.00,,,0.00,Wunderground v.1.15,2013-08-08 12:19:00,
2013-08-08 07:25:00,71.1,-34.5,29.90,WSW,256,0.0,5.0,1,0.00,,,0.00,Wunderground v.1.15,2013-08-08 12:25:00,
2013-08-08 07:34:00,71.3,-34.4,29.90,NNW,336,1.0,5.0,1,0.00,,,0.00,Wunderground v.1.15,2013-08-08 12:34:00,
2013-08-08 07:44:00,71.3,-34.4,29.90,WNW,286,0.0,5.0,1,0.00,,,0.00,Wunderground v.1.15,2013-08-08 12:44:00,
2013-08-08 07:54:00,71.3,-34.4,29.91,NNW,343,0.0,5.0,1,0.00,,,0.00,Wunderground v.1.15,2013-08-08 12:54:00,
2013-08-08 07:59:00,71.4,-34.4,29.91,NW,318,0.0,5.0,1,0.00,,,0.00,Wunderground v.1.15,2013-08-08 12:59:00,
2013-08-08 08:05:00,71.5,-34.3,29.92,NW,318,0.0,5.0,1,0.00,,,0.00,Wunderground v.1.15,2013-08-08 13:05:00,
2013-08-08 08:10:00,71.5,-34.3,29.92,NW,318,0.0,5.0,1,0.00,,,0.00,Wunderground v.1.15,2013-08-08 13:10:00,
2013-08-08 08:19:00,71.7,-34.2,29.92,NNE,18,0.0,5.0,1,0.00,,,0.00,Wunderground v.1.15,2013-08-08 13:19:00,
2013-08-08 08:29:00,71.9,-34.1,29.93,NNE,18,0.0,5.0,1,0.00,,,0.00,Wunderground v.1.15,2013-08-08 13:29:00,
2013-08-08 08:39:00,71.7,-34.2,29.93,NNE,18,0.0,5.0,1,0.00,,,0.00,Wunderground v.1.15,2013-08-08 13:39:00,
2013-08-08 08:49:00,71.6,-34.2,29.95,ESE,105,0.0,5.0,1,0.00,,,0.00,Wunderground v.1.15,2013-08-08 13:49:00,
2013-08-08 08:54:00,71.5,-34.3,29.95,ESE,104,1.0,5.0,1,0.00,,,0.00,Wunderground v.1.15,2013-08-08 13:54:00,
2013-08-08 08:59:00,71.4,-34.4,29.95,East,80,2.0,2.0,1,0.00,,,0.00,Wunderground v.1.15,2013-08-08 13:59:00,
2013-08-08 09:04:00,71.3,-34.4,29.95,East,89,1.0,5.0,1,0.00,,,0.00,Wunderground v.1.15,2013-08-08 14:04:00,
2013-08-08 09:09:00,71.3,-34.4,29.95,East,97,0.0,5.0,1,0.00,,,0.00,Wunderground v.1.15,2013-08-08 14:09:00,
2013-08-08 09:14:00,71.2,-34.5,29.95,East,92,1.0,5.0,1,0.00,,,0.00,Wunderground v.1.15,2013-08-08 14:14:00,
2013-08-08 09:19:00,71.2,-34.5,29.95,East,93,2.0,5.0,1,0.00,,,0.00,Wunderground v.1.15,2013-08-08 14:19:00,
2013-08-08 09:29:00,71.2,-34.5,29.95,East,82,2.0,5.0,1,0.00,,,0.00,Wunderground v.1.15,2013-08-08 14:29:00,
2013-08-08 09:34:00,71.2,-34.5,29.94,East,90,2.0,5.0,1,0.00,,,0.01,Wunderground v.1.15,2013-08-08 14:34:00,
2013-08-08 09:39:00,71.1,-34.5,29.94,ESE,113,1.0,5.0,1,0.00,,,0.01,Wunderground v.1.15,2013-08-08 14:39:00,
2013-08-08 09:44:00,71.1,-34.5,29.94,ESE,111,1.0,5.0,1,0.00,,,0.01,Wunderground v.1.15,2013-08-08 14:44:00,
2013-08-08 09:50:00,71.1,-34.5,29.93,ESE,104,1.0,5.0,1,0.00,,,0.01,Wunderground v.1.15,2013-08-08 14:50:00,
2013-08-08 09:55:00,71.2,-34.5,29.93,ESE,108,1.0,5.0,1,0.00,,,0.01,Wunderground v.1.15,2013-08-08 14:55:00,
2013-08-08 10:04:00,71.4,-34.4,29.92,NE,51,1.0,1.0,1,0.00,,,0.00,Wunderground v.1.15,2013-08-08 15:04:00,
2013-08-08 10:14:00,71.8,-34.1,29.90,North,353,0.0,0.0,1,0.00,,,0.00,Wunderground v.1.15,2013-08-08 15:14:00,
2013-08-08 10:24:00,71.9,-34.1,29.88,North,356,1.0,2.0,1,0.00,,,0.00,Wunderground v.1.15,2013-08-08 15:24:00,
2013-08-08 10:29:00,71.9,-34.1,29.88,NNW,336,1.0,1.0,1,0.00,,,0.00,Wunderground v.1.15,2013-08-08 15:29:00,
2013-08-08 10:40:00,71.7,-34.2,29.88,North,353,1.0,4.0,1,0.00,,,0.00,Wunderground v.1.15,2013-08-08 15:40:00,
2013-08-08 10:45:00,71.8,-34.1,29.87,North,354,2.0,4.0,1,0.00,,,0.00,Wunderground v.1.15,2013-08-08 15:45:00,
2013-08-08 10:54:00,72.0,-34.0,29.89,NNW,339,1.0,1.0,1,0.00,,,0.00,Wunderground v.1.15,2013-08-08 15:54:00,
2013-08-08 11:04:00,72.5,-33.7,29.87,NNW,331,1.0,1.0,1,0.00,,,0.00,Wunderground v.1.15,2013-08-08 16:04:00,
2013-08-08 11:09:00,72.8,-33.5,29.87,NNW,342,1.0,1.0,1,0.00,,,0.00,Wunderground v.1.15,2013-08-08 16:09:00,
2013-08-08 11:14:00,73.2,-33.3,29.87,NW,304,1.0,2.0,1,0.00,,,0.00,Wunderground v.1.15,2013-08-08 16:14:00,
2013-08-08 11:25:00,74.5,-32.5,29.86,NE,35,1.0,2.0,1,0.00,,,0.00,Wunderground v.1.15,2013-08-08 16:25:00,
2013-08-08 11:34:00,75.0,-32.2,29.86,NE,35,3.0,4.0,1,0.00,,,0.00,Wunderground v.1.15,2013-08-08 16:34:00,
2013-08-08 11:44:00,76.8,-31.1,29.86,NNE,12,1.0,2.0,1,0.00,,,0.00,Wunderground v.1.15,2013-08-08 16:44:00,
2013-08-08 11:54:00,78.2,-30.3,29.86,NNE,17,1.0,2.0,1,0.00,,,0.00,Wunderground v.1.15,2013-08-08 16:54:00,
2013-08-08 11:59:00,78.4,-30.1,29.85,NNE,15,1.0,1.0,1,0.00,,,0.00,Wunderground v.1.15,2013-08-08 16:59:00,
2013-08-08 12:09:00,79.3,-29.6,29.85,South,170,0.0,0.0,1,0.00,,,0.00,Wunderground v.1.15,2013-08-08 17:09:00,
2013-08-08 12:15:00,79.7,-29.4,29.85,ENE,77,0.0,0.0,1,0.00,,,0.00,Wunderground v.1.15,2013-08-08 17:15:00,
2013-08-08 12:24:00,80.5,-28.9,29.85,SW,216,1.0,3.0,1,0.00,,,0.00,Wunderground v.1.15,2013-08-08 17:24:00,
2013-08-08 12:34:00,81.1,-28.5,29.86,West,269,1.0,1.0,1,0.00,,,0.00,Wunderground v.1.15,2013-08-08 17:34:00,
2013-08-08 12:44:00,80.3,-29.0,29.86,SE,132,1.0,1.0,1,0.00,,,0.00,Wunderground v.1.15,2013-08-08 17:44:00,
2013-08-08 12:54:00,79.8,-29.3,29.86,ESE,113,1.0,2.0,1,0.00,,,0.00,Wunderground v.1.15,2013-08-08 17:54:00,
2013-08-08 13:00:00,80.0,-29.2,29.86,East,95,1.0,1.0,1,0.00,,,0.00,Wunderground v.1.15,2013-08-08 18:00:00,
2013-08-08 13:05:00,79.4,-29.5,29.86,West,277,1.0,3.0,1,0.00,,,0.00,Wunderground v.1.15,2013-08-08 18:05:00,
2013-08-08 13:14:00,79.5,-29.5,29.86,East,100,1.0,2.0,1,0.00,,,0.00,Wunderground v.1.15,2013-08-08 18:14:00,
2013-08-08 13:19:00,80.1,-29.1,29.86,SSW,207,0.0,0.0,1,0.00,,,0.00,Wunderground v.1.15,2013-08-08 18:19:00,
2013-08-08 13:29:00,80.0,-29.2,29.86,SW,229,1.0,1.0,1,0.00,,,0.00,Wunderground v.1.15,2013-08-08 18:29:00,
2013-08-08 13:39:00,80.2,-29.1,29.87,SE,134,0.0,0.0,1,0.00,,,0.00,Wunderground v.1.15,2013-08-08 18:39:00,
2013-08-08 13:50:00,80.7,-28.8,29.87,West,274,0.0,2.0,1,0.00,,,0.00,Wunderground v.1.15,2013-08-08 18:50:00,
2013-08-08 13:59:00,80.6,-28.8,29.88,SE,143,1.0,1.0,1,0.00,,,0.00,Wunderground v.1.15,2013-08-08 18:59:00,
2013-08-08 14:04:00,80.7,-28.8,29.88,SW,228,0.0,1.0,1,0.00,,,0.00,Wunderground v.1.15,2013-08-08 19:04:00,
2013-08-08 14:09:00,80.4,-28.9,29.88,SW,236,1.0,3.0,1,0.00,,,0.00,Wunderground v.1.15,2013-08-08 19:09:00,
2013-08-08 14:19:00,80.5,-28.9,29.88,NW,307,1.0,1.0,1,0.00,,,0.00,Wunderground v.1.15,2013-08-08 19:19:00,
2013-08-08 14:25:00,81.1,-15.3,29.88,SW,214,1.0,1.0,2,0.00,,,0.00,Wunderground v.1.15,2013-08-08 19:25:00,
2013-08-08 14:30:00,81.6,-6.8,29.88,NNE,27,1.0,1.0,3,0.00,,,0.00,Wunderground v.1.15,2013-08-08 19:30:00,
2013-08-08 14:39:00,81.9,-28.0,29.88,NNW,338,1.0,1.0,1,0.00,,,0.00,Wunderground v.1.15,2013-08-08 19:39:00,
2013-08-08 14:49:00,82.1,-27.9,29.87,WNW,284,1.0,4.0,1,0.00,,,0.00,Wunderground v.1.15,2013-08-08 19:49:00,
2013-08-08 14:59:00,81.6,-28.2,29.87,NW,317,2.0,2.0,1,0.00,,,0.00,Wunderground v.1.15,2013-08-08 19:59:00,
2013-08-08 15:04:00,81.8,-28.1,29.87,NW,319,2.0,2.0,1,0.00,,,0.00,Wunderground v.1.15,2013-08-08 20:04:00,
2013-08-08 15:09:00,81.3,-28.4,29.87,West,270,2.0,2.0,1,0.00,,,0.00,Wunderground v.1.15,2013-08-08 20:09:00,
2013-08-08 15:15:00,80.8,-28.7,29.87,NNW,333,3.0,3.0,1,0.00,,,0.00,Wunderground v.1.15,2013-08-08 20:15:00,
2013-08-08 15:20:00,80.7,-28.8,29.87,WNW,294,2.0,3.0,1,0.00,,,0.00,Wunderground v.1.15,2013-08-08 20:20:00,
2013-08-08 15:29:00,80.6,-28.8,29.87,SW,229,3.0,3.0,1,0.00,,,0.00,Wunderground v.1.15,2013-08-08 20:29:00,
2013-08-08 15:39:00,80.9,-28.6,29.87,SW,236,2.0,3.0,1,0.00,,,0.00,Wunderground v.1.15,2013-08-08 20:39:00,
2013-08-08 15:44:00,81.0,-7.2,29.87,NW,315,1.0,3.0,3,0.00,,,0.00,Wunderground v.1.15,2013-08-08 20:44:00,
2013-08-08 15:54:00,80.9,-28.6,29.87,NW,314,2.0,2.0,1,0.00,,,0.00,Wunderground v.1.15,2013-08-08 20:54:00,
2013-08-08 16:05:00,80.8,-28.7,29.87,SW,216,1.0,2.0,1,0.00,,,0.00,Wunderground v.1.15,2013-08-08 21:05:00,
2013-08-08 16:14:00,80.2,-29.1,29.87,WNW,303,2.0,3.0,1,0.00,,,0.00,Wunderground v.1.15,2013-08-08 21:14:00,
2013-08-08 16:24:00,80.3,-29.0,29.88,NW,316,1.0,2.0,1,0.00,,,0.00,Wunderground v.1.15,2013-08-08 21:24:00,
2013-08-08 16:34:00,79.8,-29.3,29.88,West,262,1.0,1.0,1,0.00,,,0.00,Wunderground v.1.15,2013-08-08 21:34:00,
2013-08-08 16:50:00,79.4,-29.5,29.89,NNW,331,1.0,1.0,1,0.00,,,0.00,Wunderground v.1.15,2013-08-08 21:50:00,
2013-08-08 16:55:00,79.1,-29.7,29.89,WSW,249,2.0,5.0,1,0.00,,,0.00,Wunderground v.1.15,2013-08-08 21:55:00,
2013-08-08 17:04:00,79.3,-29.6,29.89,North,356,1.0,2.0,1,0.00,,,0.00,Wunderground v.1.15,2013-08-08 22:04:00,
2013-08-08 17:09:00,79.1,-29.7,29.89,West,280,0.0,0.0,1,0.00,,,0.00,Wunderground v.1.15,2013-08-08 22:09:00,
2013-08-08 17:19:00,78.6,-30.0,29.89,NW,321,1.0,1.0,1,0.00,,,0.00,Wunderground v.1.15,2013-08-08 22:19:00,
2013-08-08 17:29:00,78.1,-30.3,29.89,WNW,288,1.0,3.0,1,0.00,,,0.00,Wunderground v.1.15,2013-08-08 22:29:00,
2013-08-08 17:35:00,78.0,-30.4,29.90,West,269,1.0,3.0,1,0.00,,,0.00,Wunderground v.1.15,2013-08-08 22:35:00,
2013-08-08 17:49:00,77.9,-30.4,29.90,NW,317,2.0,2.0,1,0.00,,,0.00,Wunderground v.1.15,2013-08-08 22:49:00,
2013-08-08 18:04:00,78.0,-30.4,29.89,NW,321,1.0,3.0,1,0.00,,,0.00,Wunderground v.1.15,2013-08-08 23:04:00,
2013-08-08 18:14:00,77.9,-30.4,29.90,NW,312,1.0,2.0,1,0.00,,,0.00,Wunderground v.1.15,2013-08-08 23:14:00,
2013-08-08 18:25:00,77.5,-30.7,29.90,WNW,295,1.0,2.0,1,0.00,,,0.00,Wunderground v.1.15,2013-08-08 23:25:00,
2013-08-08 18:34:00,77.3,-30.8,29.89,West,281,1.0,3.0,1,0.00,,,0.00,Wunderground v.1.15,2013-08-08 23:34:00,
2013-08-08 18:44:00,77.4,-30.7,29.89,WNW,297,1.0,2.0,1,0.00,,,0.00,Wunderground v.1.15,2013-08-08 23:44:00,
2013-08-08 18:54:00,77.2,-30.9,29.89,WNW,290,1.0,1.0,1,0.00,,,0.00,Wunderground v.1.15,2013-08-08 23:54:00,
2013-08-08 19:04:00,77.2,-30.9,29.89,NW,314,1.0,2.0,1,0.00,,,0.00,Wunderground v.1.15,2013-08-09 00:04:00,
2013-08-08 19:14:00,76.8,-31.1,29.89,WNW,297,1.0,2.0,1,0.00,,,0.00,Wunderground v.1.15,2013-08-09 00:14:00,
2013-08-08 19:24:00,76.2,-31.5,29.89,West,278,2.0,3.0,1,0.00,,,0.00,Wunderground v.1.15,2013-08-09 00:24:00,
2013-08-08 19:34:00,75.7,-31.8,29.90,NW,312,2.0,4.0,1,0.00,,,0.00,Wunderground v.1.15,2013-08-09 00:34:00,
2013-08-08 19:50:00,75.1,-32.1,29.90,NW,318,0.0,0.0,1,0.00,,,0.00,Wunderground v.1.15,2013-08-09 00:50:00,
2013-08-08 19:59:00,74.9,-32.2,29.89,NW,316,0.0,0.0,1,0.00,,,0.00,Wunderground v.1.15,2013-08-09 00:59:00,
2013-08-08 20:09:00,74.8,-32.3,29.89,WNW,288,0.0,1.0,1,0.00,,,0.00,Wunderground v.1.15,2013-08-09 01:09:00,
2013-08-08 20:19:00,74.6,-32.4,29.89,NNW,330,0.0,0.0,1,0.00,,,0.00,Wunderground v.1.15,2013-08-09 01:19:00,
2013-08-08 20:30:00,74.2,-32.7,29.89,NNW,345,0.0,0.0,1,0.00,,,0.00,Wunderground v.1.15,2013-08-09 01:30:00,
2013-08-08 20:39:00,73.9,-32.9,29.89,NW,323,0.0,0.0,1,0.00,,,0.00,Wunderground v.1.15,2013-08-09 01:39:00,
2013-08-08 20:49:00,73.7,-33.0,29.89,NW,316,0.0,0.0,1,0.00,,,0.00,Wunderground v.1.15,2013-08-09 01:49:00,
2013-08-08 20:59:00,73.8,-32.9,29.90,WNW,287,0.0,0.0,1,0.00,,,0.00,Wunderground v.1.15,2013-08-09 01:59:00,
2013-08-08 21:10:00,73.8,-32.9,29.90,NW,326,0.0,0.0,1,0.00,,,0.00,Wunderground v.1.15,2013-08-09 02:10:00,
2013-08-08 21:15:00,73.9,-32.9,29.90,WNW,290,0.0,0.0,1,0.00,,,0.00,Wunderground v.1.15,2013-08-09 02:15:00,
2013-08-08 21:29:00,74.0,-32.8,29.91,West,266,0.0,0.0,1,0.00,,,0.00,Wunderground v.1.15,2013-08-09 02:29:00,
2013-08-08 21:39:00,74.0,-32.8,29.91,WSW,250,0.0,0.0,1,0.00,,,0.00,Wunderground v.1.15,2013-08-09 02:39:00,
2013-08-08 21:44:00,73.9,-32.9,29.92,WSW,253,0.0,0.0,1,0.00,,,0.00,Wunderground v.1.15,2013-08-09 02:44:00,
2013-08-08 21:54:00,73.9,-32.9,29.93,West,281,0.0,0.0,1,0.00,,,0.00,Wunderground v.1.15,2013-08-09 02:54:00,
2013-08-08 22:00:00,73.8,-32.9,29.93,WNW,285,0.0,0.0,1,0.00,,,0.00,Wunderground v.1.15,2013-08-09 03:00:00,
2013-08-08 22:05:00,73.8,-32.9,29.93,WSW,256,0.0,0.0,1,0.00,,,0.00,Wunderground v.1.15,2013-08-09 03:05:00,
2013-08-08 22:14:00,73.9,-32.9,29.93,NW,326,0.0,0.0,1,0.00,,,0.00,Wunderground v.1.15,2013-08-09 03:14:00,
2013-08-08 22:24:00,73.9,-32.9,29.93,WNW,291,0.0,0.0,1,0.00,,,0.00,Wunderground v.1.15,2013-08-09 03:24:00,
2013-08-08 22:39:00,73.9,-32.9,29.94,NW,309,0.0,0.0,1,0.00,,,0.00,Wunderground v.1.15,2013-08-09 03:39:00,
2013-08-08 22:45:00,73.8,-32.9,29.94,North,360,0.0,1.0,1,0.00,,,0.00,Wunderground v.1.15,2013-08-09 03:45:00,
2013-08-08 22:54:00,73.7,-33.0,29.94,NNW,342,0.0,0.0,1,0.00,,,0.00,Wunderground v.1.15,2013-08-09 03:54:00,
2013-08-08 23:04:00,73.8,-32.9,29.94,West,266,0.0,2.0,1,0.00,,,0.00,Wunderground v.1.15,2013-08-09 04:04:00,
2013-08-08 23:09:00,73.8,-32.9,29.94,NNW,340,0.0,0.0,1,0.00,,,0.00,Wunderground v.1.15,2013-08-09 04:09:00,
2013-08-08 23:14:00,73.7,-33.0,29.94,WNW,296,0.0,0.0,1,0.00,,,0.00,Wunderground v.1.15,2013-08-09 04:14:00,
2013-08-08 23:24:00,73.7,-33.0,29.95,WNW,296,0.0,0.0,1,0.00,,,0.00,Wunderground v.1.15,2013-08-09 04:24:00,
2013-08-08 23:30:00,73.7,-33.0,29.94,WNW,299,0.0,0.0,1,0.00,,,0.00,Wunderground v.1.15,2013-08-09 04:30:00,
2013-08-08 23:39:00,73.5,-33.1,29.94,NNW,337,0.0,0.0,1,0.00,,,0.00,Wunderground v.1.15,2013-08-09 04:39:00,
2013-08-08 23:49:00,73.4,-33.2,29.94,NW,314,0.0,0.0,1,0.00,,,0.00,Wunderground v.1.15,2013-08-09 04:49:00,
2013-08-08 23:59:00,73.3,-33.2,29.94,NNE,18,0.0,0.0,1,0.00,,,0.00,Wunderground v.1.15,2013-08-09 04:59:00,